#timestamp,LO_Frequency,Hit,StdDev 
1593993615.4,286046998.7,N
1593993635.2,286047001.1,N
1593993655.0,286046998.6,N
1593993655.9,286046998.6,N
1593993675.8,286047001.0,N
1593993695.6,286047000.3,N
1593993715.5,286047002.0,N
1593993735.3,286047000.5,N
1593993755.1,286047000.9,N
1593993775.9,286047000.7,N
1593993795.7,286047002.4,N
1593993815.5,286047004.2,N
1593993835.4,286047002.2,N
1593993855.2,286047002.7,N
1593993875.1,286047000.3,N
1593993876.0,286047000.3,N
1593993895.8,286046999.8,N
1593993915.6,286047000.3,N
1593993935.5,286047000.3,N
1593993955.3,286047002.8,N
1593993975.2,286047001.3,N
1593993995.9,286047001.9,N
1593994015.7,286047003.8,N
1593994035.6,286047003.8,N
1593994055.4,286047003.9,N
1593994075.2,286047001.5,N
1593994095.1,286047001.7,N
1593994096.0,286047001.7,N
1593994115.8,286047001.9,N
1593994135.7,286047002.3,N
1593994155.5,286047002.3,N
1593994175.3,286047002.6,N
1593994195.2,286047002.7,N
1593994215.0,286047002.4,N
1593994215.9,286047002.4,N
1593994235.8,286046999.7,N
1593994255.6,286047000.3,N
1593994275.4,286047001.8,N
1593994295.3,286047001.3,N
1593994315.1,286046999.9,N
1593994335.9,286047000.1,N
1593994355.7,286047002.5,N
1593994375.5,286047001.8,N
1593994395.4,286047001.4,N
1593994415.2,286047001.3,N
1593994435.1,286047003.5,N
1593994436.0,286047003.5,N
1593994455.8,286047003.1,N
1593994475.6,286047003.4,N
1593994495.5,286047003.0,N
1593994515.3,286047004.4,Y
1593994535.1,286047000.5,P
1593994555.9,286047000.7,N
1593994575.7,286047000.0,N
1593994595.6,286047000.0,N
1593994615.4,286047000.8,N
1593994635.2,286047000.7,N
1593994655.1,286047001.8,N
1593994656.0,286047001.8,N
1593994675.8,286047002.1,N
1593994695.7,286047002.8,Y
1593994715.5,286046999.7,P
1593994735.3,286046999.7,N
1593994755.2,286047000.6,N
1593994775.0,286047000.9,N
1593994775.9,286047000.9,N
1593994795.8,286046998.3,Y
1593994815.6,286046998.3,P
1593994835.4,286047000.9,N
1593994885.3,286046998.4,E
1593994895.2,286047001.0,N
1593994915.1,286047001.0,P
1593994916.0,286047001.0,P
1593994935.8,286046998.7,Y
1593994955.6,286046998.7,P
1593994975.5,286047001.2,N
1593994995.3,286047000.8,N
1593995015.1,286046999.8,N
1593995035.9,286047000.2,N
1593995055.7,286046999.7,N
1593995075.6,286047000.5,N
1593995095.4,286047000.7,N
1593995115.2,286046998.6,N
1593995135.1,286046998.2,N
1593995136.0,286046998.2,N
1593995155.8,286046998.3,N
1593995175.7,286046998.5,N
1593995195.5,286047001.2,N
1593995215.3,286046998.5,N
1593995235.2,286047001.0,N
1593995255.0,286046999.1,N
1593995255.9,286046999.1,N
1593995275.7,286046998.2,N
1593995295.6,286047001.0,N
1593995315.4,286047000.3,N
1593995335.3,286046998.4,N
1593995355.1,286047001.0,N
1593995375.8,286047001.2,N
1593995395.7,286047000.6,N
1593995415.5,286046998.1,N
1593995435.4,286047000.4,N
1593995455.2,286047001.0,N
1593995475.0,286046998.3,N
1593995475.9,286046998.3,N
1593995495.8,286046999.5,N
1593995515.6,286046999.4,N
1593995535.4,286047000.0,N
1593995555.3,286047000.1,N
1593995575.1,286047000.1,N
1593995595.9,286046998.2,N
1593995615.7,286046998.9,N
1593995635.5,286046999.4,N
1593995655.4,286046998.9,N
1593995675.2,286046998.2,N
1593995695.1,286046996.6,Y
1593995696.0,286046996.6,P
1593995715.8,286046999.6,N
1593995735.6,286046999.2,N
1593995755.5,286046998.4,N
1593995775.3,286047001.2,N
1593995795.1,286046998.2,N
1593995815.9,286046999.0,N
1593995835.7,286046998.7,N
1593995855.6,286046998.6,N
1593995875.4,286047001.0,N
1593995895.2,286046998.5,N
1593995915.1,286047001.0,N
1593995916.0,286047001.0,N
1593995935.8,286046999.8,N
1593995955.7,286047000.5,N
1593995975.5,286047000.8,N
1593995995.3,286047000.5,N
1593996015.2,286046999.9,N
1593996035.0,286047001.1,N
1593996035.9,286047001.1,N
1593996055.8,286047000.6,N
1593996075.6,286046999.7,N
1593996095.4,286047000.1,N
1593996115.3,286047002.6,N
1593996135.1,286046999.8,N
1593996155.8,286047002.2,N
1593996175.7,286047004.4,Y
1593996195.5,286047004.2,P
1593996215.4,286047001.5,N
1593996235.2,286047001.7,N
1593996255.0,286047004.4,N
1593996255.9,286047004.4,N
1593996275.8,286047002.2,N
1593996295.6,286047001.8,N
1593996315.5,286047002.7,N
1593996335.3,286047002.0,N
1593996355.1,286047006.0,Y
1593996375.9,286047000.5,P
1593996395.7,286047001.2,N
1593996415.5,286046999.4,N
1593996435.4,286046999.6,N
1593996455.2,286046997.6,N
1593996475.1,286046996.5,N
1593996476.0,286046996.5,N
1593996495.8,286047002.8,N
1593996515.7,286046998.7,N
1593996535.5,286046998.2,N
1593996555.3,286046998.7,N
1593996575.2,286046998.2,N
1593996595.0,286046999.8,N
1593996595.9,286046999.8,N
1593996615.7,286047000.4,N
1593996635.6,286047002.2,N
1593996655.4,286046999.7,N
1593996675.3,286046999.9,N
1593996695.1,286047002.5,N
1593996715.8,286047002.4,N
1593996735.7,286047002.7,N
1593996755.5,286046998.6,N
1593996775.4,286047001.0,N
1593996795.2,286046998.4,N
1593996815.0,286046996.5,N
1593996815.9,286046996.5,N
1593996835.8,286046997.0,N
1593996855.6,286046999.3,N
1593996875.4,286046998.4,N
1593996895.3,286046995.1,N
1593996915.1,286046996.4,N
1593996935.9,286046997.5,N
1593996955.7,286046995.3,N
1593996975.5,286046996.2,N
1593996995.4,286046995.9,N
1593997015.2,286046995.6,N
1593997035.1,286046997.2,N
1593997036.0,286046997.2,N
1593997055.8,286046995.1,N
1593997075.7,286046995.9,N
1593997095.5,286046993.6,N
1593997115.3,286046995.0,N
1593997135.2,286046997.5,N
1593997155.0,286046995.0,N
1593997155.9,286046995.0,N
1593997175.8,286046999.6,N
1593997195.6,286046999.5,N
